Regional Weather Roundup
Issued by NWS

Home | Current Version | Previous Version | Text Only | Print | Product List | Glossary On
Versions: 1 2 3 4 5 6 7 8 9 10 11 12 13 14 15 16 17 18 19 20 21 22 23 24 25 26 27
000
ASUS44 KLIX 050813
RWRLA
LOUISIANA WEATHER ROUNDUP
NATIONAL WEATHER SERVICE NEW ORLEANS LA
200 AM CST MON DEC 05 2016

NOTE: "FAIR" INDICATES FEW OR NO CLOUDS BELOW 12,000 FEET WITH NO
      SIGNIFICANT WEATHER AND/OR OBSTRUCTIONS TO VISIBILITY.
      SKY/WX - SKY CONDITION AND SIGNIFICANT WEATHER.
      TMP - AIR TEMPERATURE.    DP   - DEWPOINT TEMPERATURE.
      RH  - RELATIVE HUMIDITY.  PRES - PRESSURE.
      HX  - HEAT INDEX.         WCI  - WIND CHILL INDEX.

*  THESE STATIONS ARE NOT NWS OR FAA STATIONS AND ARE NOT UNDER
   NWS QUALITY CONTROL.

LAZ040-048-061>063-065-066-069-050900-
SOUTHEAST LOUISIANA

CITY           SKY/WX    TMP DP  RH WIND       PRES   REMARKS
N.O. AUDUBON   NOT AVBL
N.O. INTL ARPT CLOUDY    60  60 100 N8        29.91R
N.O. LAKEFRONT CLOUDY    61  61 100 NE13      29.90S FOG
N.O. DOWNTOWN*   N/A     62  61  96 N3        29.90R
RESERVE*       CLOUDY    60  58  94 NE7       29.91S FOG
SLIDELL        CLOUDY    59  58  96 NE7       29.90F
BATON ROUGE    CLOUDY    54  53  97 N8        29.92S
BOOTHVILLE     PTCLDY    65  65 100 SE12      29.87F
BELLE CHASSE   CLOUDY    63  62  97 N3        29.89R
BOGALUSA*      CLOUDY    57  54  88 NE8       29.94S
GALLIANO*      CLOUDY    65  62  88 CALM      29.87R
NEW ROADS*     CLOUDY    50  50  97 NE7       29.94R
GONZALES*      CLOUDY    55  55 100 N6        29.93R FOG
HAMMOND*       CLOUDY    55  52  88 NE3       29.92S
HOUMA*         CLOUDY    62  62  99 N8        29.89R FOG
PORT FOURCHON* SUNNY     70  66  88 SE17G25   29.85F

$$

LAZ041-044-053-054-050900-
SOUTHWEST LOUISIANA

CITY           SKY/WX    TMP DP  RH WIND       PRES   REMARKS
LAKE CHARLES   CLOUDY    51  49  92 N9        29.92R
LAFAYETTE      CLOUDY    53  52  96 NE8       29.92S
PATTERSON      CLOUDY   N/A N/A N/A N8        29.92R FOG
SALT POINT     NOT AVBL
NEW IBERIA     CLOUDY    54  51  90 NE8       29.92S
CHENAULT AIRPK CLOUDY    50  49  97 N8        29.93R

$$

LAZ027-028-050900-
CENTRAL LOUISIANA

CITY           SKY/WX    TMP DP  RH WIND       PRES   REMARKS
FORT POLK      CLOUDY    48  47  95 VRB7      29.94S
ALEXANDRIA INT CLOUDY    48  46  93 NE7       29.95F
ALEXANDRIA     CLOUDY    49  47  93 NE8       29.96F

$$

LAZ001-002-050900-
NORTHWEST LOUISIANA

CITY           SKY/WX    TMP DP  RH WIND       PRES   REMARKS
SHREVEPORT     CLOUDY    49  44  83 NE8       30.01S
BARKSDALE AFB  CLOUDY    47  46  96 MISG      30.02R
DTN SHREVEPORT CLOUDY    48  44  86 NE3       30.01F

$$

LAZ014-016-050900-
NORTHEAST LOUISIANA

CITY           SKY/WX    TMP DP  RH WIND       PRES   REMARKS
MONROE         CLOUDY    47  43  86 NE8       30.00F
TALLULAH       CLOUDY    48  45  89 NE6       29.99F

$$





USA.gov is the U.S. government's official web portal to all federal, state and local government web resources and services.